Theta_e
316 314 310 308 306 306 306 307 308 309 310 311 312 312 313 314 314 314 314 313 313 313 314 315 316 316 317 316 316 317 317 319 320 320 323 324 322 316 313 318 320 319 318 316 313 314 316 318 317 317 317 317 316 316 316 315 315 317 320 325 326 327 328 328 331 332 334 333 331 334 336 339 341 338 335 335 335 335 336 337 336 337 336 333 333 333 333 333
317 316 313 310 308 306 306 307 307 308 309 310 311 311 312 313 313 314 314 314 313 314 315 315 316 316 316 316 316 317 319 323 324 323 324 323 322 316 312 313 315 316 316 314 313 314 317 319 317 316 317 316 315 316 316 315 317 323 330 330 328 330 332 330 332 331 333 333 331 333 334 336 339 337 334 337 337 335 337 338 337 338 336 332 332 332 332 332
316 317 315 311 309 307 307 307 308 308 308 309 311 311 311 312 312 313 314 314 314 314 315 315 316 316 316 316 316 318 321 325 326 325 323 320 318 313 313 312 311 312 311 312 314 313 316 317 316 316 317 316 316 316 315 317 322 326 330 331 329 332 332 331 331 332 332 331 333 335 334 335 335 333 334 337 336 336 338 338 337 338 337 333 332 331 332 332
315 317 317 313 310 308 307 308 309 309 309 308 309 310 311 311 311 312 313 314 314 314 315 315 316 316 316 316 316 319 322 325 325 323 321 319 316 313 314 313 312 312 312 314 314 313 315 315 315 316 317 319 317 315 315 319 326 327 328 330 330 331 332 332 330 330 331 330 333 336 337 338 335 334 336 336 336 337 337 336 336 338 336 334 331 331 331 330
315 317 318 315 311 308 308 309 310 310 310 309 309 309 311 311 311 312 312 313 314 314 315 315 316 316 316 315 317 320 321 323 321 318 318 316 315 315 314 314 314 314 314 314 314 313 314 316 316 317 318 319 317 319 321 324 327 327 327 328 329 331 332 331 330 330 330 330 334 337 339 337 335 336 335 334 337 337 335 334 336 336 334 332 331 331 331 331
315 316 318 317 312 308 308 309 310 311 311 311 309 309 310 311 311 311 311 312 313 314 314 315 315 316 316 315 319 322 321 320 318 315 316 315 315 314 314 315 315 314 315 314 313 314 315 316 318 318 318 317 319 325 327 327 326 328 328 328 330 330 331 330 329 329 329 331 335 336 337 336 337 337 334 334 336 335 334 334 336 334 331 330 330 330 331 332
315 316 317 317 314 309 308 309 310 311 311 311 310 309 310 311 311 311 311 311 312 313 314 315 315 315 315 316 321 325 325 324 320 317 315 314 315 315 315 315 315 315 314 314 314 315 317 318 318 318 318 319 323 327 327 326 327 328 329 329 329 328 329 329 328 329 330 334 335 335 337 338 339 338 335 335 335 334 334 333 333 332 329 329 329 329 329 330
315 315 316 318 316 311 308 309 310 310 311 311 311 310 310 311 311 311 311 311 311 312 313 314 314 315 315 318 323 327 330 328 322 318 316 315 315 315 315 315 315 315 314 314 315 317 317 319 320 319 319 323 326 327 327 326 328 329 329 328 328 328 328 328 328 328 331 334 334 336 339 338 337 337 337 336 335 334 334 333 333 332 330 331 330 329 329 328
315 315 316 318 317 313 309 309 310 311 311 311 311 310 310 311 311 312 311 310 311 311 312 312 313 314 314 319 324 325 326 326 321 317 316 315 316 316 316 316 316 315 315 315 315 316 317 319 320 320 323 325 325 326 326 327 328 328 327 327 327 327 327 328 329 329 331 332 335 338 340 338 336 338 338 336 335 334 334 335 335 334 333 332 331 330 329 329
315 315 316 317 317 314 310 309 310 310 311 311 311 311 311 311 312 312 311 310 311 311 311 311 312 314 314 320 325 324 322 320 318 316 316 317 317 318 318 318 318 317 317 317 316 316 318 320 318 321 326 326 325 325 325 326 326 324 324 325 327 328 328 328 329 331 332 332 337 342 342 338 336 339 339 336 335 333 334 337 336 334 334 333 332 331 331 331
314 315 316 316 317 316 312 309 310 310 312 312 311 311 311 312 312 311 310 310 310 310 310 310 311 313 315 321 325 324 321 318 316 317 317 317 317 318 318 318 319 319 318 319 318 317 319 318 318 322 324 324 325 325 326 325 324 324 325 326 327 327 327 329 330 331 332 331 335 339 339 338 340 340 338 336 335 334 335 337 336 334 333 333 332 332 331 331
314 315 315 316 317 316 313 310 310 311 313 314 312 311 311 312 312 311 310 309 309 310 309 309 312 312 316 324 327 324 319 317 317 317 317 317 318 319 318 319 318 319 319 319 318 319 319 320 322 326 325 325 326 326 326 324 326 328 331 333 331 329 328 328 330 330 331 332 332 337 340 341 343 341 335 335 335 335 337 337 336 335 333 333 332 332 331 330
312 314 316 316 316 316 314 311 310 312 314 315 313 311 311 311 310 310 309 309 310 310 309 310 312 312 317 324 326 321 318 317 318 317 318 318 319 319 318 319 318 318 318 318 318 319 321 322 325 326 325 328 329 327 326 327 329 329 334 339 336 333 329 325 328 329 330 332 331 336 345 343 343 341 335 334 335 336 338 338 337 335 334 333 332 333 332 331
310 313 315 316 316 316 314 311 311 313 315 316 315 312 310 309 308 308 308 310 310 309 311 312 312 315 321 324 320 319 319 318 318 318 318 318 318 318 318 318 319 319 318 318 318 320 322 323 324 325 325 327 325 327 333 337 335 332 331 337 340 334 328 327 328 329 330 330 329 335 345 346 343 341 338 334 333 337 340 339 338 336 335 335 334 334 333 331
309 312 315 316 316 316 314 312 312 314 317 317 317 314 311 309 308 309 309 310 311 312 312 312 314 319 325 327 320 318 318 317 318 318 318 319 318 318 318 318 318 318 318 319 319 322 321 322 325 326 325 325 328 333 340 343 341 341 331 327 334 331 328 332 329 328 331 327 327 336 344 343 340 340 338 333 332 338 341 338 338 337 336 336 335 336 335 332
308 310 313 315 316 316 314 313 313 315 317 318 317 316 313 311 310 311 312 312 312 312 313 315 318 321 326 327 321 318 318 317 318 318 317 318 318 318 318 318 318 318 319 319 319 320 321 323 325 325 325 328 333 337 339 339 337 341 337 327 329 332 330 330 326 327 331 326 327 336 340 339 341 339 335 333 334 337 339 338 339 339 337 337 336 336 335 334
308 309 312 314 316 316 314 313 313 315 318 319 318 316 316 314 313 313 313 313 314 315 316 317 318 321 326 326 321 319 318 318 317 317 318 318 319 318 318 318 318 317 318 319 320 320 320 320 322 323 326 329 332 338 334 327 324 328 337 331 328 332 331 327 325 326 328 329 330 332 335 338 342 339 334 333 333 335 338 338 339 339 338 336 335 335 336 337
308 309 311 313 316 316 314 313 314 316 318 319 319 317 317 315 314 314 314 315 318 320 319 318 321 325 326 324 324 321 317 318 318 318 318 317 319 318 318 318 317 317 318 319 319 320 321 320 325 327 328 326 328 338 333 324 322 325 331 330 326 329 330 327 327 325 326 330 331 331 334 337 338 335 332 332 331 334 337 336 336 337 337 335 334 334 335 336
310 310 311 312 315 315 314 314 315 317 319 321 322 321 322 320 317 317 318 318 322 323 321 322 328 331 326 323 324 321 317 318 318 318 318 317 318 318 318 317 318 318 316 319 320 320 323 324 326 327 327 327 328 334 333 326 327 328 329 330 327 327 329 330 330 326 326 329 330 333 333 335 336 334 332 331 329 332 334 334 335 335 335 335 334 334 334 336
311 311 311 313 315 315 314 314 315 317 320 321 322 324 331 329 326 327 324 322 323 325 323 323 326 328 324 322 321 318 318 317 317 317 317 318 317 317 317 316 318 319 317 319 318 317 326 326 325 328 329 328 326 330 331 326 326 328 327 328 327 327 327 328 330 324 326 331 329 331 332 332 334 333 332 331 330 335 337 336 336 334 334 335 334 334 334 335
312 312 311 313 315 314 314 314 315 319 321 321 321 326 334 331 328 329 327 325 323 320 321 322 322 322 323 322 318 316 318 316 316 318 317 317 317 316 318 318 317 318 318 318 320 327 334 327 322 328 331 325 323 327 328 324 326 326 325 325 325 326 327 328 329 324 327 332 328 328 331 331 332 331 332 333 333 337 340 338 335 333 333 334 335 334 335 336
312 312 312 313 315 314 314 314 317 321 321 321 321 325 329 326 325 326 326 328 325 320 321 321 320 321 321 321 320 317 316 318 318 318 318 317 316 316 318 318 317 318 319 319 326 335 332 323 321 324 326 323 318 322 325 323 325 324 322 323 323 325 326 326 326 324 325 330 328 327 329 330 331 331 333 334 333 334 334 334 334 333 334 334 335 335 336 338
311 313 312 313 315 313 314 315 318 321 321 322 321 323 325 324 326 326 325 329 327 324 324 323 322 322 321 320 319 318 317 318 318 317 318 317 316 317 317 317 317 317 317 319 326 326 318 318 323 321 319 318 316 319 322 322 321 322 322 322 322 324 324 322 323 324 324 326 327 328 329 329 329 329 331 331 330 331 331 330 332 332 334 335 334 336 337 338
311 312 312 313 314 314 314 316 320 320 320 323 322 322 322 323 325 327 331 334 331 329 326 323 324 321 320 318 317 318 317 316 317 317 317 316 317 317 317 318 317 317 318 320 324 324 320 319 319 317 316 317 317 318 319 321 319 318 322 323 321 324 323 321 323 325 325 326 325 327 331 331 331 331 330 331 332 331 332 333 333 333 334 336 336 336 336 337
310 312 312 313 314 314 313 317 321 318 320 323 322 323 322 321 323 327 335 338 334 333 325 320 321 318 317 318 317 318 317 316 317 317 316 317 318 318 318 319 317 318 319 318 320 321 319 318 317 317 317 317 317 317 318 321 319 316 318 323 324 324 323 323 324 324 325 325 323 327 331 331 335 337 331 331 335 333 332 335 335 335 337 338 338 338 336 335
310 312 312 313 314 313 315 321 320 316 320 322 322 324 321 320 321 326 339 342 336 333 324 319 319 317 317 317 317 317 317 319 318 317 317 317 318 318 318 319 319 319 318 318 321 320 317 318 318 317 316 317 317 316 315 320 322 316 315 321 325 324 322 322 323 324 326 326 325 326 329 330 333 336 334 332 334 332 330 333 335 336 337 337 338 337 337 337
309 311 312 313 313 313 318 321 316 316 322 322 322 324 319 319 321 324 338 339 332 326 320 320 318 316 318 316 317 320 318 320 319 316 318 317 318 318 317 319 321 319 320 321 319 318 319 318 318 317 317 318 317 315 315 320 321 314 313 322 324 322 322 323 324 325 326 327 328 326 328 331 328 331 337 333 331 332 331 332 334 334 334 335 336 336 337 338
309 311 312 313 313 313 317 318 314 317 321 320 321 321 317 320 322 331 341 329 321 320 317 318 318 316 318 317 317 321 321 320 318 317 318 318 318 319 318 319 320 318 323 325 317 315 320 317 317 320 319 317 315 316 317 319 320 315 317 322 322 323 323 322 324 325 326 326 325 327 330 333 328 331 341 334 329 333 332 332 333 333 334 334 335 335 336 337
310 311 311 313 312 315 318 315 314 317 317 318 320 318 318 322 326 340 345 328 316 318 319 316 318 318 318 317 317 318 318 318 319 321 320 318 318 318 320 320 319 318 321 325 320 316 317 317 318 319 318 317 316 317 318 318 319 316 317 320 322 324 322 323 324 325 329 330 325 324 331 334 330 332 338 337 333 332 331 332 332 332 334 335 335 335 335 335
311 311 311 313 312 315 316 313 315 317 315 317 317 317 322 331 339 339 335 328 319 321 322 317 317 319 317 318 318 317 317 317 320 320 317 318 319 318 319 319 319 322 324 326 323 318 317 318 319 319 317 316 317 318 318 318 319 316 318 322 322 325 327 333 336 332 330 328 324 324 329 334 332 330 334 338 337 334 331 333 333 333 336 336 335 335 334 334
311 312 312 313 313 316 316 315 316 315 315 316 316 322 330 338 348 339 328 327 327 326 325 320 318 320 317 318 321 319 317 317 317 318 318 320 321 324 324 320 328 336 334 331 327 320 317 317 317 318 317 317 318 321 320 320 319 317 321 322 319 326 332 335 340 340 331 325 323 323 324 331 332 330 334 337 335 333 332 334 335 335 335 335 335 334 333 333
312 312 313 313 315 317 318 318 314 313 315 316 319 338 344 333 336 339 331 326 329 331 327 322 320 320 317 318 319 318 316 317 317 318 319 320 321 324 323 321 334 339 327 326 328 321 318 319 319 319 320 320 320 324 323 324 325 319 326 328 320 325 332 329 332 335 330 324 321 323 325 330 333 332 336 340 334 330 330 331 334 335 334 335 335 334 335 335
313 313 313 315 317 317 317 315 311 314 316 318 332 351 351 334 329 334 332 327 329 332 329 326 324 322 317 318 319 317 316 317 318 317 316 320 324 325 323 323 331 331 324 325 327 325 324 324 323 321 322 322 321 322 319 321 325 318 324 331 323 325 329 322 325 329 327 323 320 323 329 330 334 335 336 339 335 330 329 330 332 334 335 334 333 333 335 336
313 314 315 318 317 315 316 313 313 319 318 325 344 350 339 333 334 333 329 330 332 329 327 326 327 326 321 320 320 318 317 318 317 317 318 324 328 327 327 325 322 330 341 333 325 328 327 324 325 324 322 323 321 321 317 318 323 318 322 329 321 327 330 321 326 331 327 327 324 326 332 331 333 335 332 335 335 330 328 329 331 332 333 333 333 333 334 336
313 314 316 319 318 318 316 312 316 321 321 334 353 348 335 330 334 333 328 332 334 330 329 328 327 328 324 327 327 320 318 319 317 320 324 327 328 326 325 323 318 328 341 332 322 326 325 322 329 326 320 322 320 320 321 321 323 319 322 324 316 323 331 324 327 331 328 330 330 329 330 329 331 332 330 334 335 330 328 330 331 332 332 334 335 335 335 336
313 314 319 319 321 326 321 313 319 322 326 344 351 344 340 335 334 332 329 333 333 333 335 332 330 327 323 328 330 323 321 319 323 327 325 325 327 324 323 320 319 324 334 335 328 324 320 321 330 325 319 324 320 317 321 320 322 324 322 321 318 320 328 327 325 330 334 334 332 331 330 328 331 333 332 333 332 329 330 330 331 332 332 335 336 336 336 336
314 316 322 322 323 329 324 318 321 322 335 355 349 339 340 339 336 334 330 331 332 339 341 332 332 328 321 322 324 323 322 320 326 329 322 325 327 323 321 319 319 322 329 337 330 325 325 325 330 326 319 321 321 322 326 321 324 330 322 320 326 323 327 335 332 333 339 336 332 334 333 331 333 334 334 334 332 331 332 331 332 333 334 336 338 338 338 338
314 318 325 326 323 326 326 323 319 325 346 359 349 341 338 335 335 333 332 333 335 346 347 334 335 333 323 323 324 323 320 317 323 327 322 325 324 320 321 322 320 320 324 332 328 328 332 327 329 333 322 319 328 332 331 327 326 329 323 323 328 322 323 334 332 329 334 335 334 334 333 333 335 334 336 335 333 332 333 333 333 335 336 337 337 336 336 336
316 327 337 329 321 324 324 321 322 337 353 353 344 342 338 335 337 335 334 337 338 346 346 336 337 336 331 329 327 326 321 318 322 325 323 324 322 320 321 323 322 320 323 327 326 330 338 331 329 334 324 322 334 333 325 325 324 323 326 330 333 327 326 330 329 327 332 337 338 335 333 334 336 337 336 332 332 332 333 333 333 333 335 335 334 332 331 331
318 333 340 327 321 324 321 321 332 346 350 346 342 339 335 338 340 336 334 334 337 342 343 339 335 336 340 338 330 327 324 324 325 324 323 324 324 321 321 324 322 321 327 329 326 332 341 334 327 333 332 324 326 327 321 321 324 325 327 329 329 329 330 332 330 328 332 338 339 340 337 333 333 336 334 330 331 332 331 332 332 331 333 332 331 331 329 329
323 333 337 327 321 321 322 328 336 342 341 339 338 334 335 341 342 339 336 333 335 336 337 339 335 334 337 334 332 329 324 326 327 324 324 324 326 324 322 323 322 327 339 339 333 331 333 335 330 328 327 321 320 324 322 320 323 328 329 326 328 330 332 334 330 326 332 336 336 340 339 334 331 334 335 332 330 331 330 330 330 330 332 331 331 330 329 329
329 335 335 327 321 319 326 333 332 332 333 335 338 336 339 343 341 338 336 331 333 332 330 334 332 332 333 330 331 331 325 324 325 327 325 323 326 325 323 327 327 334 345 338 331 331 337 344 338 328 325 323 321 323 324 323 322 326 328 327 334 335 336 341 335 327 330 332 331 337 339 337 334 335 337 332 329 330 329 329 330 331 332 331 330 330 329 329
334 334 329 321 322 323 326 329 327 330 335 337 336 335 338 342 339 338 337 333 333 333 331 332 331 333 334 330 330 330 327 325 324 327 327 322 323 322 323 332 333 337 344 335 329 333 340 341 335 334 339 336 330 329 329 330 328 327 325 326 332 329 328 338 336 331 333 332 333 338 337 336 335 334 334 330 328 330 329 330 331 330 331 331 330 331 331 331
329 329 329 321 322 324 322 325 326 333 341 339 334 332 335 340 339 338 337 335 337 337 335 333 330 331 331 329 330 330 328 326 322 324 328 325 324 323 325 331 330 333 338 334 331 332 332 334 336 340 340 338 340 339 331 329 328 328 326 326 329 329 331 336 333 337 339 332 333 339 336 336 334 330 329 328 329 330 329 329 330 329 330 330 330 331 332 332
327 329 329 325 323 323 327 334 336 335 336 336 338 338 334 337 340 337 335 335 336 335 335 333 330 328 327 327 329 328 328 329 327 326 327 325 324 323 325 328 327 329 332 335 343 340 330 337 349 349 339 335 338 336 330 329 328 329 329 327 328 331 338 338 333 339 340 332 334 337 335 335 332 327 328 328 328 329 329 329 328 328 329 329 330 332 331 331
330 333 333 334 334 328 329 334 331 326 327 333 340 341 336 337 340 337 334 335 334 334 336 334 329 328 327 327 330 330 327 329 332 329 326 325 325 323 324 327 329 333 337 342 353 355 343 343 354 354 344 340 343 341 338 336 331 328 329 330 329 330 335 336 335 338 336 333 335 334 331 333 331 328 328 329 328 329 329 328 328 329 329 329 331 330 328 328
329 333 333 333 336 336 335 335 326 321 327 335 338 340 339 340 340 335 332 332 336 339 340 336 330 329 329 329 332 333 331 329 329 328 327 327 327 325 323 327 333 341 345 339 345 361 356 341 343 345 340 342 345 340 334 330 328 328 328 331 333 332 333 334 334 334 332 334 336 332 331 333 331 330 329 328 329 329 329 330 330 330 330 328 326 325 324 324
327 332 330 327 333 338 336 335 331 327 332 336 337 340 341 338 338 337 334 334 337 337 344 350 343 334 331 328 329 333 336 334 329 327 328 325 325 328 327 323 330 342 343 334 339 360 358 337 332 335 330 332 333 327 327 329 328 329 330 332 333 335 335 333 331 332 333 336 335 331 331 333 331 331 331 329 330 330 329 330 328 327 326 323 321 320 320 320
326 331 330 326 331 334 329 329 331 332 337 341 340 341 340 338 340 339 336 340 342 335 341 357 354 339 331 331 332 336 335 333 328 328 332 330 329 337 334 324 327 336 338 334 335 348 350 335 334 340 330 324 325 323 326 329 326 327 329 328 330 332 334 334 332 332 333 333 332 331 332 332 330 329 330 329 328 329 328 326 324 322 321 320 319 318 317 317
325 329 330 328 331 333 330 330 331 332 336 340 340 341 339 339 343 340 334 339 345 338 335 343 345 337 332 332 336 338 336 340 340 334 336 337 334 341 342 332 329 330 331 331 331 339 341 329 337 356 339 320 323 326 326 328 328 329 329 326 328 329 329 332 331 330 332 332 330 331 332 331 329 327 327 328 326 326 325 324 322 320 319 319 318 317 316 315
320 321 324 329 337 337 332 330 329 332 337 337 336 338 338 339 341 339 336 337 342 341 337 339 341 338 336 336 336 335 335 342 345 337 339 341 335 338 343 334 332 331 327 329 331 339 343 330 336 356 339 318 323 327 324 327 328 330 330 328 329 330 329 330 331 330 332 331 330 333 334 332 329 326 327 327 326 326 324 322 321 319 318 318 317 316 315 314
318 319 319 327 337 336 329 329 330 333 336 335 334 333 334 339 340 337 339 337 334 336 341 345 345 338 338 340 338 334 334 337 333 327 331 333 327 333 339 333 337 342 337 334 331 333 347 342 335 344 335 320 323 329 330 337 334 329 332 331 329 331 331 331 332 330 329 329 332 334 333 331 329 327 326 326 325 325 323 321 319 318 318 318 316 315 314 312
Wind_Speed
26 26 25 23 22 19 17 16 14 13 12 11 10 11 11 11 13 13 14 14 14 15 15 15 16 17 19 20 22 20 16 10 6 4 4 4 5 7 6 5 5 6 5 4 5 4 4 6 9 11 10 6 2 3 3 5 3 4 3 3 4 2 1 1 3 3 4 4 6 7 7 9 5 2 4 6 11 10 11 11 9 10 11 10 6 7 8 9
25 26 26 25 23 21 19 18 16 14 13 12 11 11 11 11 12 13 14 14 14 14 14 15 16 17 19 21 22 19 14 9 6 5 9 6 5 6 4 4 4 5 5 4 4 3 1 3 7 10 7 3 3 3 1 1 2 5 3 5 3 1 1 2 3 4 5 7 8 8 6 7 4 2 2 4 6 7 11 9 8 10 9 8 4 3 5 8
25 26 27 27 25 23 21 19 18 16 15 14 12 11 11 11 12 13 14 14 15 14 14 15 16 18 19 22 22 16 11 7 4 7 10 5 5 4 1 0 2 4 4 4 3 3 3 5 7 6 3 3 4 2 2 3 2 3 3 6 2 3 4 4 4 5 5 8 10 8 5 6 3 2 3 6 7 7 7 5 5 8 7 6 3 6 8 8
25 26 27 28 27 25 21 20 19 18 17 15 14 12 11 11 12 13 14 14 15 14 15 15 16 18 20 23 21 12 8 5 2 6 5 3 5 3 2 2 3 3 3 3 4 5 7 9 8 3 1 3 3 1 2 2 2 2 3 7 4 6 6 3 3 6 6 8 9 7 7 7 4 5 4 6 7 6 3 2 3 7 6 5 4 7 8 7
24 26 28 30 29 26 22 20 19 19 18 17 15 13 12 11 12 13 14 14 15 14 15 15 16 18 20 23 18 9 6 4 3 6 3 4 3 2 3 3 3 3 4 5 7 7 9 8 4 0 2 3 3 1 2 3 4 3 5 9 7 8 7 0 3 6 7 9 8 6 7 4 1 6 7 6 8 2 2 2 3 6 6 5 5 7 6 3
24 26 28 30 30 27 23 19 19 19 19 18 15 13 12 11 12 13 13 14 14 14 14 15 16 17 20 21 14 6 3 1 5 5 5 5 2 3 4 4 6 6 8 8 8 6 5 3 2 2 3 1 1 1 0 0 4 6 6 9 8 9 9 2 4 8 7 10 7 4 4 2 4 6 6 9 8 2 2 3 4 8 11 10 7 7 4 1
24 25 27 29 31 28 24 20 19 20 20 18 15 13 12 11 12 12 13 14 13 13 14 15 16 17 20 18 10 4 3 3 8 6 6 4 3 3 3 6 7 8 10 8 5 3 2 2 1 3 2 3 2 3 3 4 7 9 8 9 10 11 10 6 8 9 9 10 6 4 5 4 7 5 4 8 7 4 4 5 7 11 16 15 8 4 2 2
24 25 27 29 31 30 25 21 20 21 21 18 14 12 11 11 12 12 12 13 13 13 13 14 15 16 19 14 5 3 1 4 6 7 7 4 3 2 4 7 8 10 11 10 8 2 3 4 5 4 4 4 2 2 7 9 8 8 9 9 9 9 9 9 10 11 10 8 6 9 9 5 7 6 3 5 5 4 5 6 7 10 13 12 9 5 2 1
24 25 27 29 31 31 27 23 22 22 21 18 14 11 11 11 11 11 11 12 12 12 13 14 14 15 17 10 3 3 5 3 4 8 7 4 2 2 5 8 9 10 10 12 11 2 2 1 3 2 6 5 3 2 4 9 5 3 10 9 9 8 9 11 10 10 9 5 6 10 8 4 6 6 5 4 4 4 5 6 5 7 8 8 8 5 1 1
24 25 27 29 31 32 29 25 23 23 21 17 13 10 10 11 11 11 11 11 11 11 12 12 13 14 14 7 4 3 4 2 6 8 6 4 3 5 8 10 10 11 10 13 10 6 6 6 4 2 7 4 3 4 5 9 5 3 10 10 10 9 6 10 10 9 8 4 5 8 4 1 1 3 3 1 2 3 5 6 5 7 7 6 6 5 4 2
24 26 27 29 32 33 31 27 24 24 21 17 13 10 9 10 10 10 10 10 10 11 11 11 12 14 10 4 4 1 4 6 9 8 6 4 6 8 10 11 12 14 13 12 12 10 13 14 8 3 4 3 5 7 5 7 6 5 11 9 9 9 6 9 11 9 8 4 5 9 5 3 4 4 3 0 1 2 5 6 5 6 5 5 5 4 3 2
25 26 27 29 32 33 31 28 25 24 21 17 13 10 9 10 9 9 9 9 10 10 10 12 12 11 8 1 3 5 8 10 8 7 6 7 9 9 9 11 13 17 16 10 14 15 11 10 5 6 3 4 5 5 3 4 6 6 9 8 6 7 5 7 8 7 8 7 7 9 7 6 6 3 1 1 2 2 5 5 5 5 4 4 4 3 1 1
25 26 27 29 32 33 32 28 26 24 21 17 13 10 9 9 8 8 8 8 9 10 10 11 11 8 5 1 4 4 10 13 7 7 8 9 10 11 10 13 16 21 20 14 17 11 1 8 15 9 3 5 4 3 3 4 6 5 5 6 4 6 2 5 6 7 9 9 6 6 4 4 5 4 3 1 3 4 4 3 4 4 4 4 4 3 1 2
25 26 27 29 32 34 32 29 27 24 21 17 14 11 9 8 7 7 7 8 8 9 9 10 11 5 3 3 9 8 5 12 12 10 8 10 13 14 14 16 17 20 17 15 16 4 6 11 16 7 1 6 4 4 5 4 5 4 4 3 3 4 1 3 4 8 7 4 3 8 3 4 5 6 5 3 0 5 4 3 4 3 3 3 3 4 2 2
26 27 28 29 32 34 33 30 27 24 21 18 14 10 8 6 5 6 6 7 8 8 9 10 8 2 2 5 8 7 2 10 16 15 10 10 12 12 15 19 20 20 15 10 8 2 2 5 10 4 2 5 5 6 4 3 4 3 4 2 2 4 1 4 1 7 7 4 4 8 3 4 5 7 6 3 2 3 5 3 3 2 2 2 2 4 3 0
27 27 28 30 32 34 33 30 27 24 20 17 12 7 6 5 4 4 5 7 7 8 8 7 4 1 1 4 5 6 3 10 14 14 11 11 10 12 18 20 20 19 12 9 7 4 2 2 5 3 4 4 5 6 4 4 4 3 4 2 0 3 1 2 1 2 8 7 2 5 3 2 4 6 6 4 3 3 4 2 1 0 1 2 2 2 3 1
28 28 29 31 33 35 33 31 28 24 20 17 11 5 4 5 3 3 5 6 6 7 6 3 3 2 1 4 4 5 4 8 11 11 11 13 13 17 18 12 11 12 8 9 10 5 2 2 3 2 3 3 3 5 5 4 2 3 3 2 2 3 2 2 1 3 8 8 4 6 6 3 2 3 5 5 3 1 2 2 2 2 1 3 3 2 2 2
29 29 30 31 34 35 33 31 28 24 20 16 12 7 3 3 3 3 4 3 3 5 4 2 2 3 2 5 3 3 4 9 12 11 13 16 19 20 16 8 7 7 5 7 7 3 2 3 2 2 3 3 3 5 4 3 4 3 2 4 3 2 3 3 3 3 7 8 7 8 5 3 3 4 4 4 3 2 2 2 1 2 2 2 2 1 0 2
29 30 30 32 34 34 32 30 27 24 20 17 14 8 3 2 3 3 3 1 0 1 1 1 2 3 2 4 4 5 6 10 12 12 16 18 18 16 11 7 5 2 2 2 3 2 1 3 3 2 2 2 3 5 6 7 8 8 5 5 5 3 2 3 2 4 8 8 6 8 7 6 5 5 6 4 4 3 1 0 1 3 3 1 1 2 1 1
29 30 31 32 34 33 30 28 25 22 19 19 18 10 3 4 3 3 3 1 3 5 3 2 4 2 4 3 2 5 8 9 8 10 14 13 9 6 5 3 1 2 1 2 3 3 3 5 1 4 5 8 9 8 8 6 7 8 5 4 6 5 2 3 3 5 8 6 3 6 8 7 7 8 7 5 4 2 1 0 2 2 2 2 2 3 1 0
30 30 31 32 33 32 28 26 23 19 18 20 19 8 1 3 3 3 4 3 5 8 6 7 8 7 8 7 6 8 6 6 6 8 12 10 3 2 4 2 1 3 3 3 3 3 5 5 5 7 9 10 10 10 8 6 6 6 7 5 5 5 3 4 6 5 5 5 3 5 7 6 7 8 6 6 5 3 3 3 3 4 3 2 2 3 1 0
29 30 31 32 33 30 25 24 20 16 19 22 16 4 2 6 6 4 1 3 7 7 7 9 9 9 12 16 17 11 5 2 5 8 10 6 3 0 3 2 1 4 3 1 1 5 5 2 7 9 10 6 7 10 9 6 7 5 6 6 5 4 3 4 4 5 4 4 4 5 7 5 5 6 5 5 4 4 6 6 5 5 4 4 4 3 2 1
28 30 30 31 33 29 23 22 16 14 21 22 13 8 10 14 15 11 1 1 6 6 5 6 7 8 10 13 15 12 5 2 3 6 7 2 0 4 2 3 3 5 4 1 5 4 2 4 8 6 5 2 3 8 8 5 7 5 5 7 4 4 4 3 3 5 4 4 6 7 6 4 2 2 1 3 4 5 7 6 3 4 5 5 5 4 4 4
26 29 29 30 33 27 22 18 12 16 23 17 12 16 20 20 20 16 4 1 4 5 5 7 7 6 7 7 10 10 2 2 3 4 7 6 2 3 4 4 5 6 3 2 6 6 3 7 5 2 3 1 1 2 4 6 5 4 5 7 6 5 6 6 7 7 4 4 8 9 6 4 3 3 1 1 1 4 5 4 3 2 2 3 3 3 4 4
25 28 28 30 31 28 22 12 9 21 23 11 13 23 26 22 21 15 4 2 3 5 5 4 3 2 3 6 10 8 1 2 4 6 8 10 6 2 2 4 3 4 2 5 7 5 3 5 1 4 4 2 4 3 2 6 6 2 4 9 10 7 8 11 12 9 6 4 5 6 5 3 5 3 1 2 3 4 3 4 5 3 2 3 4 4 3 3
24 26 27 28 30 30 20 5 11 24 16 7 17 25 24 23 21 12 3 4 3 5 4 2 1 1 1 3 6 5 4 4 9 10 10 8 6 3 1 3 1 2 3 6 4 3 1 4 7 4 4 5 6 4 1 5 7 2 4 10 10 10 12 14 11 6 5 4 3 3 6 1 4 5 4 1 4 3 3 4 4 4 4 4 4 4 4 4
23 24 27 26 28 30 15 4 15 19 6 9 21 24 23 24 21 10 3 5 3 4 2 2 0 1 2 4 5 6 2 6 6 6 7 3 1 2 1 4 3 3 2 5 3 0 1 7 8 6 6 6 5 3 2 5 7 2 5 11 11 11 12 11 9 5 4 4 3 6 6 4 2 3 7 3 4 5 3 3 4 4 4 4 4 4 4 4
22 23 26 24 27 27 12 9 16 11 5 15 21 22 23 22 15 4 5 4 3 3 1 1 1 0 1 2 5 4 4 4 1 3 5 2 2 2 1 4 2 4 2 7 4 3 1 5 5 5 7 5 2 2 3 6 5 2 6 11 11 10 10 9 8 5 3 5 5 3 4 6 3 4 7 5 5 5 2 3 4 4 4 4 5 5 5 5
22 23 25 25 26 21 11 11 12 7 12 20 20 22 23 17 8 4 5 2 2 3 1 1 1 1 2 3 1 1 2 0 2 5 4 1 2 2 1 5 1 1 3 6 6 3 1 3 5 5 4 1 2 6 3 7 3 2 7 9 7 8 9 9 8 5 4 6 5 4 3 6 1 3 5 4 3 3 2 1 2 2 3 4 5 5 5 4
21 22 24 26 25 18 12 11 7 7 16 19 19 21 18 9 4 6 3 0 2 5 2 1 2 1 3 3 2 3 2 2 2 2 2 1 2 2 1 2 3 4 5 6 3 1 1 0 3 4 1 2 1 4 1 4 2 2 8 7 6 6 5 5 4 4 6 4 2 3 4 6 3 1 2 1 1 1 3 3 3 3 3 2 2 2 3 3
22 22 24 26 24 16 10 7 3 8 15 16 18 17 9 4 4 5 0 3 2 4 3 2 3 3 2 3 2 3 3 3 1 2 2 2 5 4 3 4 4 5 6 6 5 5 5 4 2 0 0 2 3 4 3 3 3 4 6 5 5 3 4 4 4 5 6 1 3 2 9 9 5 0 4 2 2 3 3 5 4 4 4 2 2 2 2 3
22 23 24 24 20 13 8 4 4 9 12 14 15 8 4 4 3 2 2 3 1 2 3 2 3 4 2 1 1 4 3 2 1 2 1 1 3 2 1 2 2 4 4 2 3 5 4 3 3 2 2 3 5 4 5 6 6 4 5 5 5 1 4 4 3 3 2 1 1 6 10 7 4 3 4 5 4 3 3 6 6 6 5 5 4 4 4 3
23 24 24 21 17 13 10 4 4 6 10 13 9 4 6 5 0 3 2 2 2 4 3 3 5 6 2 2 2 5 4 3 3 2 2 2 2 3 2 1 4 5 1 2 2 3 3 6 5 4 4 2 6 4 3 4 4 3 4 5 5 3 4 3 1 2 2 3 4 6 7 4 2 2 1 4 8 5 3 5 5 6 6 6 6 6 6 5
23 24 24 19 13 11 7 2 2 4 9 10 5 4 6 4 2 3 1 2 3 3 3 3 7 6 2 1 4 5 5 3 3 3 2 2 3 2 3 4 3 5 3 2 2 2 3 3 3 1 2 1 3 2 3 2 2 2 3 5 5 4 5 5 4 4 4 3 3 4 4 3 2 1 4 1 8 7 3 7 6 6 6 6 7 7 6 6
23 23 19 13 8 5 4 5 4 3 6 5 5 5 4 2 3 1 1 3 2 4 6 5 4 4 3 3 2 2 4 2 1 3 3 2 2 1 0 3 3 4 4 3 0 1 4 2 6 3 1 3 3 1 2 5 3 2 2 5 3 4 5 4 3 5 6 3 3 3 2 3 3 3 5 3 5 2 7 9 7 7 6 7 7 6 5 4
24 21 12 7 4 0 4 7 6 4 3 5 6 3 2 4 2 2 1 2 1 2 6 7 4 3 4 4 3 3 3 1 1 3 2 2 2 2 1 0 2 4 4 3 2 1 3 2 6 3 2 3 3 1 3 4 2 1 3 2 2 3 8 7 3 3 5 6 3 2 3 4 3 5 4 2 2 6 9 8 7 6 7 8 6 5 5 4
25 20 10 6 3 2 4 7 8 4 4 6 5 1 3 2 2 2 1 1 2 1 3 4 3 2 3 3 3 4 4 2 2 3 1 1 2 3 1 1 3 3 3 4 2 1 3 1 7 2 3 1 0 4 6 4 4 4 2 2 2 3 6 6 4 3 4 5 2 2 3 3 2 4 3 4 3 9 7 7 7 5 6 8 5 4 5 4
21 16 9 5 4 6 5 7 8 5 4 5 2 2 2 1 1 0 0 2 2 3 5 1 2 1 2 2 3 3 3 2 2 2 1 1 1 2 1 2 5 5 2 5 3 1 4 2 7 4 2 3 5 7 5 8 4 4 3 2 3 3 3 3 3 3 4 4 2 2 2 2 2 4 4 1 4 9 6 6 7 5 6 7 5 5 6 5
14 8 5 1 9 10 8 10 6 5 5 4 0 2 1 2 0 1 2 2 3 3 3 1 2 1 3 2 2 4 3 1 0 2 2 1 1 2 2 2 4 6 6 7 4 1 3 4 3 6 4 3 6 6 2 5 6 4 3 3 3 3 4 2 2 4 5 4 3 2 3 2 0 3 8 7 6 9 8 6 6 7 7 6 5 6 6 6
6 3 3 3 9 11 11 9 4 5 3 2 3 2 2 2 1 3 4 1 2 2 2 3 3 0 3 4 2 3 2 1 2 2 1 2 2 1 4 3 2 3 7 8 4 1 3 4 1 6 6 4 3 1 3 2 2 4 5 4 3 2 2 2 3 2 4 5 4 3 3 2 2 1 4 9 8 8 9 8 7 7 8 7 6 6 6 6
3 3 3 1 7 9 8 5 3 3 2 1 2 2 2 2 1 3 5 2 2 2 3 4 3 2 2 3 4 3 2 1 1 3 2 2 3 1 4 3 3 2 5 7 5 2 2 2 2 2 4 4 1 2 3 5 5 5 4 2 0 2 3 4 4 3 2 5 4 5 4 1 2 3 1 5 8 7 8 9 8 8 8 7 6 6 6 6
3 1 4 2 1 2 4 4 1 1 2 2 2 2 2 2 1 1 2 1 2 1 2 3 2 2 2 2 4 4 1 1 1 3 2 2 4 2 2 2 5 5 4 3 2 1 2 3 4 1 0 2 1 3 6 7 9 8 4 2 3 3 4 5 3 1 3 5 3 5 4 3 3 3 3 3 6 7 7 9 9 7 7 7 6 6 6 6
3 2 7 6 5 3 4 3 3 3 0 4 3 1 1 2 1 1 1 0 0 1 1 1 1 1 3 3 4 3 1 2 2 3 4 3 4 1 0 4 7 5 4 2 2 2 2 3 3 1 3 3 3 7 8 6 8 8 4 3 3 3 3 5 5 4 4 4 3 4 4 2 2 1 4 3 6 7 6 8 9 7 6 6 7 6 5 6
1 3 6 7 5 1 3 1 2 1 3 4 1 1 1 1 2 2 1 0 0 1 1 2 2 2 3 4 3 2 2 3 2 1 3 3 2 1 4 8 7 4 3 2 2 0 1 1 3 3 3 5 6 7 7 7 5 4 2 4 5 5 5 5 4 4 4 2 2 5 4 1 2 2 3 5 8 7 6 7 8 8 6 6 6 5 5 5
2 1 4 6 4 1 3 4 4 3 4 3 2 2 1 0 2 3 2 2 2 2 1 3 2 1 4 4 3 3 2 4 1 1 2 4 1 2 6 9 7 4 2 3 3 3 2 2 3 5 3 2 0 1 1 2 2 2 3 6 7 6 7 6 3 4 5 2 2 5 6 4 1 3 6 7 8 8 7 7 7 7 6 5 5 4 5 5
2 1 3 6 4 3 0 2 4 3 3 1 2 3 1 1 2 1 1 1 2 1 2 3 3 2 4 5 2 4 4 3 5 2 2 4 2 2 3 6 6 4 2 2 3 4 3 2 3 6 6 6 6 5 4 3 4 4 5 8 8 6 7 7 4 4 5 4 5 4 7 8 4 5 7 7 8 9 8 8 7 6 5 5 4 5 6 6
2 1 1 3 3 3 3 3 3 1 3 2 1 3 3 2 2 2 2 1 3 1 1 3 3 1 3 4 2 3 4 2 6 4 2 4 3 1 2 5 5 4 3 4 4 4 5 3 2 6 4 5 5 2 3 7 8 7 8 8 8 7 8 8 7 7 8 8 5 2 6 10 6 5 7 7 8 8 6 6 6 5 4 5 6 7 8 7
1 0 0 2 1 1 2 4 4 4 4 3 2 2 2 2 1 1 1 1 3 2 2 3 5 4 6 6 2 2 3 5 5 4 4 4 4 3 4 4 4 4 5 4 4 4 6 1 1 4 3 2 6 9 11 11 8 8 9 9 8 9 10 10 8 7 6 8 7 7 8 11 6 5 7 7 7 7 6 5 5 4 5 7 8 9 8 7
1 1 2 2 0 2 3 6 6 5 5 3 2 2 3 3 3 3 2 2 3 2 3 1 7 9 10 8 3 2 0 3 3 2 3 4 3 3 3 3 3 4 5 4 3 3 5 0 1 3 5 6 9 12 13 12 9 9 10 10 10 10 10 10 8 6 8 10 9 9 11 9 5 5 7 6 6 6 5 5 6 7 8 8 9 9 8 8
2 1 2 2 2 3 3 4 4 4 4 1 2 3 3 4 4 3 1 4 2 1 3 3 5 9 9 9 3 3 4 7 7 4 4 5 4 3 3 2 1 2 4 3 2 3 4 1 1 3 5 6 7 10 12 12 12 10 8 9 12 12 11 11 10 10 11 10 8 10 12 6 2 3 6 5 5 7 7 8 8 8 9 10 9 9 9 9
5 4 2 2 1 3 3 4 4 4 4 3 0 2 2 3 5 2 1 1 4 4 5 6 4 4 6 11 7 4 7 7 8 7 7 7 5 4 3 3 5 3 3 2 1 3 3 1 1 5 6 3 5 11 13 12 12 10 6 6 10 10 9 7 7 7 10 11 10 10 9 4 4 3 5 6 7 9 9 8 8 7 8 10 9 8 9 9
8 6 3 3 1 3 4 4 4 4 3 3 2 2 2 4 3 4 2 4 2 3 6 7 6 2 3 9 9 7 6 7 9 7 7 7 6 5 4 4 6 5 3 2 2 1 3 3 1 4 6 2 3 8 10 9 9 6 0 4 6 8 8 7 4 5 9 11 10 6 6 7 6 6 7 7 7 8 7 6 7 7 8 9 9 8 8 8
Wind_Direction
21 18 15 11 7 4 1 357 353 347 343 339 337 333 328 328 327 328 329 330 333 337 344 346 351 351 348 351 348 345 346 345 330 299 263 264 262 269 271 251 223 203 211 248 262 268 311 308 303 321 336 333 236 230 214 199 184 93 117 104 69 59 78 160 154 149 126 99 82 105 112 112 134 154 120 66 55 69 69 62 60 61 66 76 103 143 132 119
17 15 12 9 5 0 357 354 351 345 339 335 332 328 323 323 323 323 324 326 329 334 341 343 347 347 345 350 347 343 346 344 340 289 264 264 259 256 246 243 236 218 220 230 240 233 322 315 331 350 346 327 269 255 359 245 123 102 118 92 78 107 30 356 91 91 100 108 89 88 109 111 132 187 107 79 65 73 78 66 70 77 76 82 85 86 93 105
12 11 10 7 3 358 353 350 348 344 339 334 328 325 319 317 319 318 320 321 324 331 338 342 344 343 344 349 346 342 342 345 344 290 278 259 215 217 170 193 186 180 197 201 234 229 226 285 322 352 345 307 280 296 346 307 60 106 112 84 93 108 65 5 70 94 109 113 95 82 88 79 47 5 72 109 88 64 80 77 89 99 92 92 65 56 69 83
7 8 7 5 1 357 352 348 347 344 340 335 327 324 316 313 314 313 316 316 319 328 335 340 340 341 346 347 346 341 344 9 322 282 286 211 191 176 109 118 137 163 199 231 266 261 268 285 303 332 336 295 269 274 281 254 84 87 86 94 143 122 87 1 70 96 93 93 96 99 88 74 40 29 52 118 95 49 45 28 98 120 106 92 65 63 68 76
5 4 4 3 0 356 352 348 345 343 340 336 329 322 315 312 311 310 311 311 316 325 332 337 336 341 346 345 346 339 357 38 289 272 213 189 203 165 144 160 195 238 256 268 272 274 284 280 284 107 187 258 260 216 231 186 124 88 79 108 139 118 99 6 60 72 73 81 85 81 75 88 86 38 30 70 90 68 348 4 92 114 93 71 59 66 61 59
2 2 2 2 360 355 351 348 345 342 339 336 331 322 315 311 309 308 307 308 315 322 328 332 334 341 344 343 344 343 42 92 271 270 211 202 193 165 171 221 235 259 271 276 281 275 280 254 195 205 196 251 35 105 242 291 103 95 85 105 114 103 103 110 64 60 68 79 72 69 83 98 86 59 35 59 77 82 18 29 77 89 89 82 56 61 64 307
360 360 360 0 360 355 350 348 344 341 338 337 334 323 314 310 308 306 304 307 313 319 324 327 333 341 344 343 344 13 87 229 266 259 225 196 167 186 217 251 248 263 269 273 274 240 277 330 275 243 159 90 82 116 98 53 69 97 98 95 97 97 104 105 85 75 77 85 85 91 88 58 74 85 51 56 66 68 49 43 67 86 98 102 90 86 161 203
358 358 358 359 359 356 352 348 344 341 339 337 335 324 314 309 307 304 303 306 311 316 320 326 333 341 346 346 351 17 341 246 260 239 214 174 167 214 248 258 256 257 259 262 250 215 356 335 291 271 110 108 150 120 101 79 53 80 101 100 98 97 103 100 89 87 85 89 93 82 75 66 86 100 65 51 61 67 70 56 62 84 97 106 112 128 227 320
356 356 357 357 357 357 353 349 345 342 340 339 336 325 315 308 306 304 303 306 309 313 318 327 335 343 349 348 38 15 305 250 217 214 190 156 171 224 245 248 252 252 255 264 255 235 338 264 273 280 109 122 156 109 89 89 52 68 105 111 108 104 106 101 92 91 90 83 89 82 77 97 115 104 66 49 73 79 92 77 64 84 89 95 107 120 178 315
354 355 356 356 356 356 354 350 346 344 343 341 337 326 315 308 305 303 301 305 307 312 321 331 338 346 351 355 61 18 300 177 182 195 166 154 202 238 246 243 249 254 255 265 254 191 206 219 226 179 116 113 108 74 58 96 114 109 101 102 109 113 108 105 103 97 93 73 85 92 88 138 142 88 73 51 91 97 98 87 79 90 91 100 107 115 134 180
352 353 354 354 355 355 354 351 347 347 345 343 340 327 314 307 304 303 301 304 305 312 325 333 341 345 346 19 93 261 237 176 183 181 159 188 232 249 258 259 258 256 251 260 264 234 231 240 230 170 114 94 83 68 53 101 116 99 93 85 90 103 103 105 112 117 103 85 106 101 75 359 9 54 98 151 102 103 100 93 89 97 98 101 100 101 121 166
350 351 353 353 354 354 353 352 349 349 347 346 342 328 315 307 306 303 300 303 304 314 329 335 338 337 340 44 175 232 199 182 180 167 181 214 237 254 273 279 273 266 258 256 279 278 256 233 149 102 131 127 101 80 64 93 92 83 89 87 77 80 106 125 123 136 118 132 151 102 54 355 3 37 68 84 122 88 80 83 85 96 100 92 91 85 62 278
348 349 350 351 352 353 353 353 351 350 349 349 344 331 319 309 309 305 303 304 302 318 331 329 324 327 354 326 271 271 195 198 198 178 203 220 242 262 270 277 280 277 269 252 264 289 23 130 105 101 158 110 104 107 79 60 73 77 75 91 89 53 100 161 138 133 124 152 177 85 52 317 320 302 319 359 134 100 74 60 71 86 87 89 102 100 37 327
347 347 348 349 350 351 354 355 353 351 351 350 343 333 321 315 314 304 303 302 304 322 322 315 315 333 48 272 293 320 220 210 215 213 224 228 245 269 278 284 283 275 268 255 256 300 72 110 100 93 122 91 106 90 54 26 48 76 64 56 86 80 222 239 143 128 111 155 148 77 92 258 288 283 296 303 149 111 108 43 49 66 73 83 106 116 100 341
347 347 347 348 348 350 354 356 354 353 352 350 343 336 329 324 314 307 305 300 307 314 307 312 314 334 42 293 299 321 226 188 206 221 238 241 249 278 292 297 292 277 270 270 273 343 29 94 89 73 36 56 75 73 42 21 27 58 87 2 11 101 223 302 192 142 113 148 133 86 91 270 274 269 282 300 332 93 107 77 58 55 68 85 95 119 129 17
348 347 345 346 347 350 355 357 356 354 352 350 347 348 344 335 319 309 300 295 302 300 303 328 333 69 65 298 318 315 226 177 205 225 235 239 244 266 279 291 293 282 275 286 295 293 286 73 76 79 86 61 74 84 48 34 9 6 92 158 124 100 116 353 300 137 118 142 117 74 127 253 278 263 277 303 329 75 105 130 137 157 153 101 82 104 124 111
348 347 345 346 347 351 356 357 356 353 351 351 351 0 356 337 326 294 288 296 302 302 308 320 336 30 286 281 315 305 239 201 224 236 229 229 238 251 262 278 286 277 287 309 305 305 345 71 90 77 67 65 91 89 57 52 24 342 53 125 150 126 117 110 80 44 98 118 80 82 132 197 245 234 254 290 309 73 140 216 234 247 212 95 70 47 103 109
347 346 345 346 347 351 356 357 355 351 350 352 349 349 354 331 310 285 281 291 315 331 338 301 342 34 294 277 270 251 232 218 233 245 236 234 237 242 247 259 272 278 327 338 311 316 19 25 71 91 45 45 78 91 97 146 160 178 158 125 128 107 103 150 161 94 93 99 99 100 111 169 192 214 235 264 265 235 227 231 268 298 322 67 69 349 65 125
347 347 346 346 347 351 355 356 355 350 349 355 351 342 341 328 301 288 272 248 15 9 353 246 146 109 226 256 250 256 254 225 229 244 243 241 240 243 251 258 268 301 16 348 298 264 117 44 39 90 107 147 160 151 172 183 163 163 162 131 134 121 119 173 157 109 112 101 106 118 125 160 184 212 222 229 226 231 249 311 347 326 324 4 15 302 285 114
346 347 346 346 347 350 354 356 354 351 353 357 355 353 2 4 356 327 308 208 192 203 229 229 194 221 271 285 251 239 255 246 233 239 241 243 242 261 292 278 345 35 168 237 265 254 103 92 197 208 194 188 183 194 193 172 153 141 113 112 139 139 146 151 108 116 124 103 102 128 130 149 172 201 211 195 192 260 341 315 296 284 268 260 271 278 262 354
345 346 346 346 347 350 353 354 353 355 356 354 358 15 87 1 10 322 313 302 254 229 238 243 227 246 263 277 255 203 216 256 250 250 255 267 312 348 309 305 353 295 240 225 265 316 65 102 209 224 216 192 173 204 207 143 144 125 105 123 137 143 157 137 130 140 117 94 116 128 118 135 165 183 194 167 167 230 227 210 233 219 212 222 244 270 267 9
344 346 346 345 346 348 349 353 354 356 354 350 357 25 262 326 332 304 288 307 291 261 247 251 249 253 252 264 253 205 153 240 252 271 273 295 6 288 287 16 136 251 254 159 46 9 36 114 234 229 220 201 149 194 207 136 126 110 105 129 141 165 138 92 116 136 114 103 125 117 107 124 157 161 175 179 176 196 207 210 205 188 179 190 209 220 194 161
343 345 346 345 346 346 346 351 355 358 355 350 353 349 335 343 345 339 6 190 295 276 243 240 247 253 249 256 237 189 150 216 218 273 257 230 257 205 237 329 281 274 309 122 130 94 52 246 243 219 196 215 115 173 187 111 101 128 129 127 154 180 130 98 138 137 125 119 124 110 93 88 80 87 171 209 193 172 192 209 196 184 182 182 192 182 173 180
342 345 347 344 344 343 341 349 359 358 355 360 9 352 345 349 352 354 19 137 306 281 237 223 229 230 211 202 185 165 169 220 172 256 221 177 202 200 190 241 259 271 282 156 128 122 211 242 230 118 88 148 48 105 142 107 111 167 148 132 161 176 133 135 139 118 79 87 121 108 67 15 6 35 81 127 131 128 149 161 146 195 191 147 146 159 177 188
342 345 346 344 344 338 337 350 2 351 351 7 9 350 346 346 348 359 28 76 328 294 287 259 230 204 177 149 160 164 136 260 231 237 203 182 193 193 220 223 220 260 223 127 108 108 236 266 54 38 25 87 97 63 94 118 117 160 170 157 158 144 124 126 126 111 82 102 153 115 79 333 325 353 64 69 74 77 90 129 150 174 153 127 148 171 184 192
341 343 344 345 343 337 338 358 345 346 348 354 351 347 345 342 342 350 43 60 338 286 310 304 164 91 280 141 153 124 71 273 252 227 206 203 199 149 290 285 343 258 187 136 117 105 305 8 39 33 39 66 88 94 168 124 104 87 176 165 148 134 138 134 126 111 113 161 211 85 106 171 323 339 325 9 116 98 71 118 149 160 159 178 187 181 186 188
340 341 342 343 342 341 342 314 331 346 355 332 342 344 340 336 335 337 57 52 333 271 277 287 353 99 232 178 138 89 101 257 271 228 207 204 210 84 317 288 345 285 207 103 81 225 32 37 33 33 62 63 64 80 205 125 105 107 162 154 146 141 145 138 117 102 137 149 35 45 104 116 24 342 320 323 115 99 83 130 158 163 165 188 197 189 196 197
338 340 339 338 340 340 335 317 327 342 345 332 339 340 334 331 329 345 84 72 299 279 259 283 348 289 297 125 121 110 220 238 46 256 246 208 223 53 22 264 286 280 278 94 119 238 354 63 61 55 62 63 75 223 220 102 99 223 148 143 147 139 136 124 107 99 92 91 83 76 98 85 39 325 323 340 88 93 103 156 167 169 158 166 184 196 204 206
335 337 336 335 335 334 329 323 319 324 341 340 340 335 328 326 336 57 77 85 275 288 253 359 335 260 13 56 113 241 274 298 141 250 286 207 222 85 198 251 221 314 354 90 131 204 202 135 137 108 73 60 242 253 224 103 120 202 107 111 115 113 120 112 106 110 64 78 137 177 104 95 94 310 325 359 67 117 154 138 137 144 134 147 170 189 199 211
332 335 334 333 331 328 324 315 303 331 343 341 337 331 326 328 35 67 41 262 259 275 262 350 316 321 79 93 288 290 249 233 223 287 352 9 323 17 221 299 61 76 27 43 74 255 268 182 126 115 124 190 215 286 243 127 177 120 86 81 77 69 76 82 79 94 75 50 236 210 105 104 118 253 280 354 15 217 155 88 67 87 91 119 154 163 173 192
329 332 332 330 326 320 316 306 308 337 338 339 337 335 340 4 66 84 141 235 249 293 320 333 302 333 58 149 240 274 223 232 267 37 338 322 356 6 29 17 32 53 25 15 4 339 348 11 9 94 134 104 56 354 352 28 19 75 84 86 99 53 24 36 8 37 79 54 280 123 90 78 85 45 310 323 312 275 156 125 115 108 83 54 26 36 79 141
328 329 329 327 319 301 281 270 316 329 334 345 345 351 53 41 34 110 236 273 305 292 293 296 302 314 318 121 222 230 188 218 236 131 185 24 13 325 76 126 136 54 6 320 10 352 342 334 307 328 360 68 69 12 346 7 23 75 99 91 107 76 24 40 12 27 98 121 81 99 88 70 78 67 342 319 313 288 162 135 125 112 87 60 40 34 40 61
327 328 327 323 311 290 269 268 326 334 342 351 357 37 78 70 302 226 251 309 270 257 277 328 331 311 298 22 271 216 170 197 221 170 180 92 42 302 337 114 136 98 148 201 56 25 346 320 328 13 343 16 97 68 352 344 3 66 124 120 116 110 82 91 82 73 118 128 108 94 85 78 61 74 213 298 317 302 137 106 99 101 88 71 53 47 46 41
329 330 327 318 305 288 257 200 55 359 348 356 32 62 65 92 232 246 288 298 259 283 335 332 318 313 272 229 228 185 148 202 214 137 144 52 42 339 342 354 44 94 113 105 73 103 97 320 308 94 297 334 96 129 162 158 6 29 153 128 119 144 137 140 158 141 144 148 108 65 69 108 110 159 159 120 309 292 99 81 79 82 76 75 60 48 49 42
331 331 327 313 304 288 205 150 113 39 359 13 62 66 87 166 253 291 359 299 295 335 333 316 315 335 315 282 259 154 133 195 246 86 98 98 94 133 92 348 15 77 88 84 252 116 106 231 260 240 210 94 80 280 144 106 33 349 105 82 89 164 138 124 142 142 136 112 31 16 61 106 94 79 99 124 264 270 84 79 75 69 63 66 60 46 49 48
335 338 332 304 298 216 144 136 123 84 39 63 69 62 163 200 216 152 225 309 12 333 328 340 7 12 322 306 324 9 67 92 54 69 72 118 110 65 95 273 2 77 104 128 192 54 78 277 278 305 26 90 133 306 34 92 120 13 47 62 236 160 116 111 94 60 90 97 50 11 100 93 72 66 44 295 220 84 74 77 72 65 71 67 57 45 42 45
343 346 332 293 272 164 147 135 125 99 63 79 88 165 219 219 190 175 245 45 89 76 49 13 346 339 324 316 318 353 35 20 25 74 38 39 33 345 352 24 29 68 142 144 151 177 110 308 291 330 73 353 241 55 28 32 110 93 68 185 231 56 80 101 109 45 51 91 67 353 98 113 104 89 27 314 79 81 71 80 74 55 70 68 43 22 13 3
345 345 325 293 176 162 165 149 129 99 71 72 90 212 226 244 206 195 257 101 81 60 77 84 267 325 360 333 296 329 39 14 350 73 94 46 17 318 12 50 33 31 80 100 75 334 100 67 296 305 84 321 357 54 24 340 26 100 144 145 98 82 73 63 101 122 98 104 99 360 36 69 82 118 136 219 104 96 88 89 88 67 64 63 36 22 16 12
349 354 332 205 149 148 159 162 135 67 65 75 149 242 240 230 252 247 220 117 82 82 88 208 236 352 333 298 271 318 16 118 157 87 119 106 45 320 13 66 44 22 42 81 91 290 82 97 284 308 338 353 11 50 54 328 357 38 34 26 53 121 138 112 108 131 128 131 132 61 27 19 340 160 152 153 138 123 118 103 93 82 71 68 62 53 44 42
13 38 305 212 148 144 154 156 98 53 77 134 184 213 248 216 220 258 235 157 106 129 132 213 218 274 300 299 294 304 325 164 130 101 112 104 104 350 353 38 96 39 37 59 73 42 50 83 164 307 333 29 34 20 154 145 48 49 42 20 358 16 82 90 75 87 123 132 140 119 76 27 353 47 147 150 146 136 127 115 100 89 81 77 79 78 67 57
63 52 294 219 133 146 140 113 53 77 122 203 203 216 252 206 168 270 256 191 143 153 154 192 203 180 236 307 313 300 324 325 108 96 50 41 104 105 342 14 109 109 44 41 36 43 65 93 113 336 4 67 96 259 144 118 101 103 98 66 111 119 95 83 58 10 75 115 143 133 111 325 351 35 318 167 141 134 125 115 105 96 92 87 82 80 75 69
77 43 278 341 30 207 102 83 300 131 124 213 223 208 215 178 149 282 276 195 126 124 155 198 215 200 197 229 263 264 299 323 359 96 102 80 92 107 301 41 79 88 87 62 338 277 132 103 87 56 64 154 165 39 66 81 85 87 80 89 124 103 91 114 132 126 77 90 107 100 91 297 328 58 291 237 134 129 125 114 107 100 96 91 82 75 70 66
98 271 279 316 313 275 80 65 309 357 54 240 247 226 168 155 174 269 317 16 29 85 137 246 197 186 226 225 246 265 106 65 28 109 142 110 67 30 267 89 79 69 74 77 303 307 73 75 67 352 306 304 349 29 38 41 63 70 38 45 91 68 82 121 135 135 109 107 125 89 80 284 298 151 237 211 125 120 118 111 106 100 92 87 84 77 71 64
143 260 281 321 319 241 106 133 253 305 281 284 310 226 196 150 174 180 156 174 206 100 80 267 210 189 241 228 235 261 137 104 29 98 124 94 50 16 63 76 80 70 68 158 194 55 45 72 81 68 10 353 353 7 15 13 41 81 35 30 67 77 88 89 79 81 69 46 133 107 103 212 245 201 171 126 110 105 96 94 97 101 99 94 95 92 85 70
338 269 277 311 322 104 142 178 160 178 267 331 8 244 232 341 205 181 183 189 167 139 170 258 245 263 281 265 263 280 198 134 138 287 89 90 55 8 57 69 78 83 108 187 169 99 109 134 108 113 120 119 131 312 78 63 41 47 23 32 43 55 84 98 84 76 71 19 42 99 129 162 191 108 100 95 96 90 82 83 89 99 109 114 115 98 75 63
35 53 306 318 344 48 186 219 116 131 240 26 349 273 181 256 275 144 152 144 104 131 236 273 307 342 290 278 293 301 285 131 120 130 112 109 105 330 43 70 73 82 102 108 88 85 91 68 99 132 150 169 182 214 213 133 85 68 51 45 42 49 84 102 93 95 121 104 56 77 131 131 118 100 94 91 96 96 98 103 103 109 116 114 101 77 65 63
76 67 5 351 339 349 342 336 44 49 233 155 158 254 196 209 293 17 2 64 90 76 299 326 347 3 283 296 330 305 304 61 96 106 101 96 99 25 29 68 71 73 74 51 48 83 84 46 98 125 144 190 184 171 89 92 96 98 83 63 55 63 77 91 109 136 136 108 94 202 135 114 122 127 110 109 108 105 109 114 117 123 111 93 81 75 71 66
55 81 81 56 306 287 343 322 318 301 261 196 180 258 201 176 207 229 280 24 56 44 38 352 323 307 306 306 270 261 338 35 60 93 111 107 104 65 24 25 27 46 62 27 5 88 103 103 184 111 75 86 113 98 90 93 94 91 90 85 77 78 84 92 114 148 137 110 145 183 134 115 136 138 120 126 123 118 124 126 122 103 84 84 86 80 70 59
38 45 333 14 28 222 250 283 293 294 270 216 175 249 194 164 205 221 190 70 26 18 90 55 307 311 314 303 239 180 75 103 106 110 135 126 111 97 64 22 354 18 57 40 355 76 106 189 259 105 73 58 87 102 101 99 93 82 85 90 84 82 90 96 105 119 104 105 133 140 116 114 144 140 130 141 132 119 113 97 84 77 78 83 83 75 65 56
6 350 317 15 358 281 270 294 314 319 306 262 172 251 213 169 202 227 134 113 104 2 107 149 278 294 304 308 304 165 182 161 149 163 157 129 112 126 144 167 186 26 42 50 353 32 84 183 244 94 74 43 69 98 99 98 101 92 80 88 90 86 88 96 107 109 100 103 120 117 109 113 199 154 129 127 113 98 89 82 77 80 88 87 80 71 64 56
333 295 291 81 5 315 332 327 332 348 342 353 316 288 283 213 205 169 55 156 147 165 179 175 219 279 319 326 316 211 188 154 144 163 156 141 148 159 158 168 153 113 39 37 17 25 73 125 359 67 78 60 87 103 101 96 93 80 69 98 104 100 103 114 128 130 127 129 123 113 116 148 214 180 116 101 98 93 92 95 91 89 93 90 85 77 66 58
354 319 328 79 118 333 6 343 340 12 350 314 309 321 313 271 240 123 85 322 327 157 170 164 159 136 341 315 292 251 205 148 139 151 138 122 123 116 117 138 133 131 152 117 50 32 104 106 89 85 93 120 148 124 114 95 74 55 28 168 127 108 114 120 119 131 137 135 135 143 160 173 181 152 116 100 97 97 99 101 100 100 96 88 85 81 73 65